Location: Kumla
(59.1265°N, 15.1401°E)
Time: 07:46:23
(UTC+01:00)

Vanguard 2 Rocket - Pass Details

Date: 04 December 2023
Orbit: 554 x 3309 km, 32.9° (Epoch: 26 February)

Event Time Altitude Azimuth Distance (km) Brightness Sun altitude
Rises 19:47:58 0° 263° (W) 7,298 12.4 -34.0°
Reaches altitude 10° 19:55:27 10° 248° (WSW) 6,190 11.7 -35.0°
Maximum altitude 20:05:49 18° 215° (SW) 5,132 10.8 -36.2°
Drops below altitude 10° 20:14:40 10° 181° (S) 5,148 10.5 -37.3°
Enters shadow 20:16:08 - 176° (S) 5,255 10.5 -37.5°
Sets 20:19:59 0° 164° (SSE) 5,667 - -38.0°
